Theta_e
327 329 328 326 321 319 321 321 321 323 322 319 317 317 317 318 320 320 319 318 317 317 317 315 315 317 314 316 316 316 316 315 309 313 315 321 323 326 328 329 327 327 326
327 327 325 323 320 319 320 322 323 322 322 318 317 317 317 317 319 319 317 317 316 315 317 317 316 316 317 317 314 316 314 316 313 311 317 318 322 327 328 327 325 325 325
327 325 323 322 321 321 322 323 323 323 321 318 317 317 316 317 318 318 318 317 317 316 317 318 317 317 317 317 317 316 316 316 318 313 314 318 321 326 326 327 327 328 325
325 323 322 322 322 322 322 323 323 323 321 319 318 317 317 317 317 318 317 317 318 317 317 318 319 317 316 317 318 320 320 318 316 313 312 315 319 323 327 322 324 327 323
323 322 322 323 323 322 321 322 323 323 321 320 319 318 318 317 315 316 315 316 317 318 319 319 320 321 317 318 317 317 321 320 316 313 312 317 321 322 323 327 324 327 329
323 321 321 322 322 322 322 322 323 323 322 322 320 319 319 316 309 308 310 314 316 318 318 319 321 321 320 317 316 316 318 321 319 318 318 319 320 323 326 325 324 319 316
322 321 321 321 321 322 322 322 322 323 324 323 322 321 319 320 309 306 306 312 317 320 317 315 318 321 320 323 314 314 314 313 313 319 319 321 321 324 324 321 321 320 319
320 321 321 321 320 321 321 322 324 324 324 323 323 322 321 319 308 305 304 313 319 321 320 319 320 322 320 320 321 321 322 323 322 319 320 322 325 325 324 321 321 322 322
320 319 318 318 317 317 322 322 321 324 324 324 323 323 322 321 309 304 304 318 320 322 323 322 322 322 304 302 318 320 321 323 315 313 309 306 305 305 310 319 319 319 315
322 321 321 321 320 321 323 324 321 323 323 322 322 323 318 321 311 305 304 316 318 320 322 322 312 314 303 301 317 320 319 321 321 322 323 316 313 318 307 319 322 317 312
321 323 323 323 324 324 324 324 324 323 322 323 323 324 324 321 320 302 302 314 317 318 318 318 318 305 304 303 300 321 319 319 318 322 323 323 324 325 320 323 325 323 314
316 317 319 320 321 321 323 324 323 323 321 320 322 322 322 323 309 305 299 299 309 318 319 319 320 304 303 302 303 300 299 304 320 322 321 322 322 323 322 325 326 323 319
307 309 311 312 312 313 314 318 319 321 318 318 317 318 318 319 320 303 300 297 299 310 318 311 303 303 301 302 300 301 300 317 319 322 321 322 324 322 324 324 325 326 323
304 305 306 306 305 307 305 305 305 308 306 307 311 315 315 311 314 305 311 312 301 308 311 315 313 309 299 306 310 311 317 319 321 322 322 324 322 322 322 321 320 318 315
301 302 302 301 303 303 305 305 305 308 300 299 299 300 302 303 296 293 296 306 312 311 313 319 319 318 317 317 318 319 319 321 322 322 321 319 319 321 320 322 319 317 315
296 297 296 295 296 297 297 298 297 295 295 294 294 296 297 293 292 291 293 293 293 294 308 312 312 315 316 315 316 316 318 316 320 322 320 321 319 320 319 320 320 316 315
294 294 293 294 294 294 294 294 294 295 294 293 293 293 292 290 290 291 292 292 291 293 308 311 311 314 315 317 316 315 315 317 322 321 319 317 318 319 317 318 318 319 317
294 292 292 293 293 293 293 293 294 293 293 294 293 291 290 289 289 290 291 293 299 297 302 309 312 313 313 316 316 314 315 318 320 320 319 318 317 317 317 317 318 318 317
293 293 292 292 293 292 293 293 293 293 292 293 294 293 293 290 290 290 292 295 293 294 297 301 309 312 312 313 317 317 317 316 318 320 318 318 318 317 315 316 317 307 308
293 291 290 292 292 292 292 292 291 292 292 292 292 293 294 292 293 295 296 296 296 293 292 292 295 298 303 311 313 316 317 315 318 319 320 317 319 317 316 315 314 315 315
292 293 289 293 292 292 291 291 291 291 291 291 292 292 284 291 293 294 294 295 295 296 296 294 293 294 297 300 300 311 315 316 316 318 318 317 319 315 318 317 316 316 316
292 292 292 292 292 292 291 291 292 291 291 291 291 292 286 293 294 294 294 295 296 296 297 297 296 294 295 297 299 299 302 313 316 317 318 317 319 318 318 316 316 315 316
291 292 292 292 292 290 291 291 291 291 291 291 291 292 293 292 292 293 293 294 294 295 296 296 296 296 297 296 297 299 298 301 315 317 316 317 317 317 316 315 314 315 315
292 292 291 291 292 291 291 291 291 289 290 291 291 291 290 290 291 291 291 292 292 293 294 294 296 296 296 297 295 296 300 303 301 308 317 316 316 314 319 315 315 317 315
292 292 291 291 291 291 291 291 291 291 291 291 291 290 290 289 290 292 292 291 292 292 291 294 295 296 296 296 296 295 295 291 293 292 299 316 316 317 316 318 315 318 316
292 292 291 290 290 290 290 290 290 290 290 291 291 290 291 290 290 290 292 292 291 291 292 292 293 294 296 297 297 293 290 289 292 291 295 299 314 317 315 317 317 318 317
Wind_Speed
5 3 3 2 4 4 5 5 6 7 7 8 8 8 8 9 8 8 8 8 8 8 7 7 9 8 6 6 5 4 5 5 7 9 7 8 7 8 6 6 6 6 7
4 4 4 4 5 5 6 8 8 8 7 8 8 8 9 9 8 8 9 8 9 10 10 10 10 8 8 9 8 8 8 9 9 11 8 8 8 8 7 6 6 7 5
4 6 5 5 5 7 7 9 8 8 8 8 8 9 10 10 10 9 9 9 10 10 11 11 10 9 10 9 9 9 9 7 7 8 9 7 8 6 6 6 7 7 5
6 6 6 6 7 7 9 9 9 8 9 9 8 10 10 11 11 10 10 11 11 9 9 11 10 9 8 10 10 10 9 8 5 7 8 8 8 6 6 6 6 6 7
6 7 8 8 8 8 9 10 10 9 9 9 10 10 10 10 9 9 11 12 12 11 10 9 9 9 10 11 8 9 9 7 6 6 7 9 5 5 7 4 5 4 6
8 8 8 8 9 9 10 10 10 10 10 10 10 11 11 9 3 3 8 12 13 11 7 9 10 11 15 10 7 10 11 9 7 6 6 8 8 5 6 6 8 8 9
8 8 8 9 9 10 10 11 11 11 11 11 12 11 11 11 4 5 7 11 12 9 8 8 9 7 4 8 10 9 11 12 11 9 10 9 8 7 7 7 6 6 7
8 9 9 10 10 11 11 12 11 11 11 11 12 12 11 10 6 7 7 12 11 8 8 8 9 10 3 5 8 9 9 6 7 7 9 10 8 8 5 5 5 4 3
8 10 10 11 10 12 13 13 8 10 11 12 11 12 11 12 6 7 6 11 9 8 8 7 7 8 8 1 9 12 10 5 8 8 9 8 7 5 6 7 7 5 4
12 13 12 11 13 13 13 13 11 12 11 11 11 11 11 12 9 10 8 9 7 8 6 6 8 6 2 2 9 8 6 3 5 7 8 8 8 6 9 9 4 5 3
14 12 10 10 12 13 13 11 11 11 11 11 13 11 12 11 9 12 11 9 8 6 7 5 5 7 5 4 7 10 5 7 3 6 4 4 4 3 2 6 6 4 5
12 12 12 13 10 10 12 11 10 10 11 11 12 11 9 9 10 11 13 15 9 8 10 7 2 8 6 7 7 3 4 7 8 5 6 4 3 3 4 4 2 4 3
12 12 12 13 12 11 12 15 11 9 9 8 10 10 7 8 8 13 13 13 13 10 10 6 2 5 8 10 15 9 7 9 7 6 7 4 3 3 5 5 5 7 8
12 11 11 11 10 9 5 6 7 8 11 14 13 12 9 6 6 15 9 10 16 11 12 12 9 8 7 8 5 10 9 9 6 6 6 1 4 5 5 4 5 7 7
12 11 12 11 12 11 10 9 8 6 4 7 8 9 9 10 13 12 12 11 13 10 10 9 9 10 11 10 10 9 8 6 6 5 7 5 4 5 6 6 5 6 7
12 10 10 10 10 10 10 10 4 3 3 5 4 3 4 3 14 19 18 17 15 11 9 11 12 9 9 10 9 8 6 6 6 5 7 5 4 5 6 8 7 9 8
11 11 10 9 9 9 10 10 10 9 8 7 3 4 4 9 16 15 16 16 10 4 10 10 13 11 9 10 9 10 7 6 7 7 7 4 5 7 7 6 8 8 6
11 3 10 10 9 9 10 10 9 10 10 10 4 6 6 13 17 12 11 13 8 4 7 12 12 13 9 9 10 9 10 5 7 5 8 4 6 7 8 8 8 9 9
10 8 10 10 9 8 9 9 9 10 10 10 10 9 5 14 16 11 4 7 8 9 10 12 12 15 10 8 9 10 9 8 8 8 9 9 8 7 6 7 12 10 8
10 5 7 10 10 9 9 9 10 10 10 9 10 10 11 14 13 11 10 9 7 4 8 9 11 13 16 11 9 9 8 11 9 9 8 9 8 8 9 9 10 10 8
10 10 8 10 10 9 9 10 11 10 11 10 10 8 3 12 13 12 12 11 11 10 8 5 10 12 15 13 14 11 10 10 12 11 9 6 9 7 9 8 11 12 10
11 11 10 10 10 10 9 11 11 10 11 11 11 11 7 10 12 13 13 13 12 13 11 11 9 8 11 14 13 12 16 11 12 10 13 8 10 10 9 7 9 9 9
13 12 11 10 10 10 10 11 10 11 11 12 12 11 11 12 13 13 14 15 15 15 15 13 12 13 9 10 13 14 13 15 11 11 10 12 10 11 9 8 7 10 14
14 12 12 11 11 11 12 11 11 11 11 12 11 10 11 12 13 14 13 13 14 15 16 16 16 19 16 13 11 13 15 14 10 17 17 11 11 11 13 9 9 15 8
14 12 12 12 12 12 12 12 12 12 12 12 11 9 11 12 13 14 14 12 14 15 17 17 16 22 25 26 21 19 19 22 18 17 15 15 16 15 13 12 10 12 14
14 13 12 11 11 12 12 12 13 13 13 13 11 10 11 12 13 12 14 14 13 16 20 13 17 27 31 25 26 23 16 17 20 18 12 16 13 14 11 14 20 16 14
Wind_Direction
229 215 217 258 313 291 288 305 312 310 307 315 315 311 313 313 313 306 314 304 319 315 301 291 295 297 274 268 282 288 263 244 263 281 301 288 311 282 256 245 222 238 199
235 219 224 278 302 278 286 300 302 299 305 308 303 306 308 312 313 309 307 316 314 307 305 299 299 290 280 269 259 263 277 280 281 279 297 288 269 271 255 232 252 223 236
249 227 235 269 285 280 283 294 292 288 298 306 303 302 307 310 306 307 307 311 308 307 298 291 289 287 286 279 271 270 259 251 237 253 273 280 278 262 258 231 218 234 232
258 260 269 277 283 277 280 289 283 277 289 298 297 298 299 301 307 298 317 309 303 292 292 285 284 281 291 302 300 281 272 271 241 244 258 270 261 249 247 248 205 220 237
257 259 270 274 273 279 278 281 286 277 277 291 293 292 292 295 290 327 311 304 301 291 284 286 273 281 276 264 264 265 276 262 241 236 256 257 241 246 246 259 266 236 223
245 262 273 276 280 282 284 281 281 279 276 279 283 290 293 287 68 228 282 298 295 282 287 291 284 244 238 243 227 242 273 279 254 237 267 264 270 273 261 243 234 224 234
266 280 289 290 288 288 287 288 287 283 279 276 279 283 288 288 238 227 257 285 289 279 283 269 278 272 239 256 187 209 231 232 245 287 274 266 271 261 264 278 298 276 273
300 288 288 285 282 282 271 269 273 275 273 272 275 280 284 287 202 222 250 278 272 272 271 261 252 272 285 310 304 281 267 235 228 235 257 284 288 301 289 295 281 270 250
292 290 285 285 286 281 272 268 264 267 271 271 271 271 277 285 199 200 255 289 266 277 245 244 245 262 125 73 288 271 262 260 173 228 256 280 279 259 252 255 228 212 194
336 318 305 302 287 287 288 294 277 264 265 269 272 271 263 273 247 193 219 277 271 272 237 236 184 273 84 295 283 270 255 200 214 198 208 223 230 237 206 224 257 214 131
328 325 328 326 315 298 299 293 284 280 275 270 273 269 271 271 276 187 199 259 275 264 268 254 133 173 210 233 268 293 347 322 210 260 264 265 244 170 218 204 210 224 168
341 343 343 342 344 335 324 308 304 295 281 271 270 270 260 249 215 197 199 225 292 272 273 280 127 161 225 243 254 318 297 282 267 300 309 297 250 223 188 213 164 189 113
348 348 343 341 355 348 343 342 329 326 300 289 270 274 302 322 303 189 190 212 237 248 263 342 2 206 243 246 236 244 242 257 268 281 280 279 217 167 175 139 104 107 103
343 340 338 341 337 342 326 343 341 8 359 349 341 327 306 296 359 357 324 205 222 228 246 250 241 254 289 295 234 213 236 253 281 267 279 114 141 185 159 147 133 122 127
338 339 342 339 339 330 338 343 334 358 54 7 357 353 350 359 355 330 337 325 318 330 311 255 245 231 231 230 226 234 246 229 247 254 246 184 189 208 146 158 146 146 169
338 350 347 332 339 339 335 328 349 294 318 297 121 107 17 36 347 340 332 331 309 308 267 262 263 253 247 248 235 235 218 237 224 236 249 173 204 211 171 167 170 174 175
344 355 335 334 339 342 336 332 330 332 322 285 194 122 73 7 346 329 329 326 301 238 252 243 263 255 251 248 238 247 231 214 240 193 234 215 172 180 183 179 181 175 192
338 335 341 335 331 340 330 332 327 331 330 329 351 6 86 16 328 316 340 324 357 278 271 276 258 259 252 253 240 234 241 219 223 232 214 176 213 171 177 167 168 180 178
328 339 339 327 320 316 317 324 327 330 327 322 323 320 4 9 311 278 208 4 339 327 329 332 309 275 272 251 250 236 238 232 211 222 237 176 223 190 205 181 167 193 173
326 304 290 320 316 328 328 327 329 324 317 320 321 327 344 339 329 331 336 333 327 307 316 321 315 318 321 293 250 239 225 224 227 215 243 213 189 222 197 193 165 170 199
318 315 321 300 318 325 318 333 317 315 318 319 318 337 27 313 310 332 328 326 321 314 306 284 303 306 304 308 327 295 234 224 222 218 223 220 198 201 225 203 181 183 159
313 313 314 314 315 312 330 307 304 315 315 318 318 316 256 300 332 328 324 323 319 313 306 296 288 279 291 292 301 306 318 254 226 215 211 213 201 202 226 192 220 172 157
314 306 307 307 309 307 304 309 309 314 316 314 310 316 336 338 323 326 329 328 320 315 308 294 284 282 266 277 285 285 289 303 267 223 213 213 199 209 196 207 201 215 154
309 305 306 306 306 313 293 313 305 296 306 307 312 339 328 318 317 328 317 315 314 312 307 299 290 281 276 257 265 275 276 271 311 317 213 215 214 206 205 197 210 196 200
303 306 304 306 306 306 302 300 305 307 307 308 310 328 314 318 317 313 310 337 324 322 316 305 292 281 272 267 258 254 262 284 286 298 315 237 212 208 222 199 185 236 196
300 305 305 305 303 302 303 305 306 310 308 307 311 323 307 312 311 313 326 323 320 320 320 310 294 285 278 270 259 256 246 257 278 281 286 307 230 206 205 220 210 189 193